{"data":{"norad_id":49019,"intl_designator":"2021-064B","name":"NINGXIA-1 7","alt_names":[],"object_type":"PAYLOAD","status":"ACTIVE","operator":null,"country":"PRC","launch_date":"2021-07-09","launch_site_code":"TAISC","launch_vehicle":null,"mission":null,"orbit_class":"UNKNOWN","rcs_meters":null,"size_class":null,"mass_kg":null,"dimensions":null,"purposes":[],"wikipedia_slug":null,"has_3d_model":false,"image_url":null,"decayed_at":null,"tle_current":{"epoch":"2026-09-20T22:36:17.143776Z","epoch_age_seconds":62818,"freshness":"FRESH","line1":"1 49019U 21064B   26263.94186509 -.00000278  00000+0 -84278-4 0  9998","line2":"2 49019  45.0014 154.7461 0007587 334.0094  26.0360 14.08559147267744","mean_motion":14.08559147,"eccentricity":0.0007587,"inclination_deg":45.0014,"raan_deg":154.7461,"arg_perigee_deg":334.0094,"mean_anomaly_deg":26.036,"bstar":-8.4278e-5,"rev_number":26774,"period_min":102.23212870166,"perigee_km":858.8116578584,"apogee_km":869.80134162491,"semimajor_km":7242.4434997417,"source":"CELESTRAK","updated_at":"2026-09-21T09:00:07.940685Z"}}}